TimeAKDT,TemperatureF,Dew PointF,Humidity,Sea Level PressureIn,VisibilityMPH,Wind Direction,Wind SpeedMPH,Gust SpeedMPH,PrecipitationIn,Events,Conditions,WindDirDegrees,DateUTC
12:04 AM,37.4,37.4,100,29.90,8.0,North,3.5,-,0.02,Rain,Light Rain,360,2013-05-04 08:04:00
12:27 AM,37.4,37.4,100,29.90,9.0,North,4.6,-,0.03,Rain,Light Rain,10,2013-05-04 08:27:00
12:49 AM,37.4,35.6,93,29.89,8.0,Calm,Calm,-,0.05,Rain,Light Rain,0,2013-05-04 08:49:00
12:53 AM,37.9,35.1,89,29.89,8.0,Calm,Calm,-,0.05,Rain,Light Rain,0,2013-05-04 08:53:00
1:31 AM,37.4,35.6,93,29.87,9.0,North,4.6,-,0.03,Rain,Light Rain,360,2013-05-04 09:31:00
1:53 AM,37.9,37.0,97,29.86,10.0,North,3.5,-,0.03,Rain,Light Rain,360,2013-05-04 09:53:00
2:53 AM,37.9,36.0,93,29.83,10.0,North,5.8,-,0.03,Rain,Light Rain,360,2013-05-04 10:53:00
3:29 AM,37.4,35.6,93,29.81,10.0,North,3.5,-,0.00,Rain,Light Rain,350,2013-05-04 11:29:00
3:53 AM,37.9,35.1,89,29.80,10.0,Variable,3.5,-,0.03,Rain,Light Rain,0,2013-05-04 11:53:00
4:07 AM,37.4,35.6,93,29.79,9.0,NNE,3.5,-,0.00,Rain,Light Rain,20,2013-05-04 12:07:00
4:37 AM,37.4,35.6,93,29.79,9.0,North,6.9,-,0.03,Rain,Light Rain,10,2013-05-04 12:37:00
4:53 AM,37.0,35.1,93,29.78,7.0,North,10.4,-,0.04,Rain,Light Rain,360,2013-05-04 12:53:00
5:53 AM,37.0,34.0,89,29.75,7.0,North,12.7,17.3,0.11,Rain,Light Rain,360,2013-05-04 13:53:00
6:53 AM,37.0,34.0,89,29.73,6.0,North,18.4,24.2,0.06,Rain,Light Rain,350,2013-05-04 14:53:00
7:53 AM,37.9,34.0,86,29.70,4.0,North,19.6,27.6,0.09,Rain,Light Rain,360,2013-05-04 15:53:00
8:53 AM,37.9,33.1,83,29.69,5.0,North,19.6,26.5,0.09,Snow,Light Snow,350,2013-05-04 16:53:00
9:39 AM,37.4,33.8,87,29.68,4.0,North,19.6,29.9,0.04,Snow,Light Snow,10,2013-05-04 17:39:00
9:53 AM,37.9,34.0,86,29.68,7.0,North,19.6,27.6,0.04,Rain,Light Rain,360,2013-05-04 17:53:00
10:53 AM,39.9,34.0,79,29.68,10.0,North,20.7,28.8,0.03,Rain,Light Rain,360,2013-05-04 18:53:00
11:53 AM,42.1,35.1,76,29.68,10.0,North,20.7,26.5,0.00,,Overcast,350,2013-05-04 19:53:00
12:53 PM,45.0,35.1,68,29.69,10.0,North,19.6,28.8,N/A,,Overcast,360,2013-05-04 20:53:00
1:01 PM,44.6,33.8,66,29.69,10.0,North,16.1,24.2,N/A,,Overcast,350,2013-05-04 21:01:00
1:19 PM,44.6,33.8,66,29.69,10.0,North,19.6,28.8,N/A,,Overcast,350,2013-05-04 21:19:00
1:53 PM,44.1,32.0,63,29.70,10.0,North,18.4,25.3,N/A,,Overcast,350,2013-05-04 21:53:00
2:53 PM,43.0,34.0,71,29.72,10.0,North,15.0,23.0,0.02,Rain,Light Rain,10,2013-05-04 22:53:00
3:53 PM,43.0,33.1,68,29.73,10.0,NNW,13.8,24.2,0.00,Rain,Light Rain,330,2013-05-04 23:53:00
4:53 PM,45.0,33.1,63,29.73,10.0,NNW,16.1,27.6,0.00,,Overcast,340,2013-05-05 00:53:00
5:53 PM,43.0,32.0,65,29.76,10.0,NNW,12.7,21.9,N/A,,Overcast,330,2013-05-05 01:53:00
6:53 PM,42.1,33.1,70,29.78,10.0,NNW,12.7,27.6,0.00,Rain,Light Rain,330,2013-05-05 02:53:00
7:53 PM,43.0,33.1,68,29.80,10.0,North,8.1,16.1,0.00,,Overcast,360,2013-05-05 03:53:00
8:53 PM,42.1,32.0,67,29.82,10.0,NNW,10.4,18.4,N/A,,Overcast,330,2013-05-05 04:53:00
9:53 PM,41.0,32.0,70,29.85,10.0,North,8.1,-,N/A,,Overcast,360,2013-05-05 05:53:00
10:53 PM,41.0,30.9,67,29.87,10.0,NNE,8.1,-,N/A,,Overcast,20,2013-05-05 06:53:00
11:53 PM,41.0,28.9,62,29.90,10.0,NNE,9.2,21.9,N/A,,Mostly Cloudy,20,2013-05-05 07:53:00